Tracking 28514 objects as of 24-Feb-2024
HD Live streaming from Space Station
objects crossing your sky now

STARLINK-2443

Track STARLINK-2443 now!
10-day predictions
STARLINK-2443 is classified as:


NORAD ID: 48107
Int'l Code: 2021-027R
Perigee: 553.4 km
Apogee: 555.3 km
Inclination: 53.1 °
Period: 95.6 minutes
Semi major axis: 6925 km
RCS: Unknown
Launch date: April 7, 2021
Source: United States (US)
Launch site: AIR FORCE EASTERN TEST RANGE (AFETR)
Your satellite tracking list
Your tracking list is empty




NASA's NSSDC Master Catalog

Two Line Element Set (TLE):
1 48107U 21027R   24054.79643534 -.00001250  00000-0 -65028-4 0  9993
2 48107  53.0525 255.5761 0001405  89.0329 271.0821 15.06398029160027
Source of the keplerian elements: AFSPC